CW0608 Weather Reports


Display with metric or nautical units.
time (UTC)temp
F
wind
direction
speed
MPH
gust
MPH
rain 1hr
in
rain 24hr
in
rain mn
in
humidity
%
barometer
mb
20260901213805 92 227 2.0 9.0 0.00 0.00 0.00 63 1014.4
20260901212306 93 211 2.0 8.0 0.00 0.00 0.00 64 1014.6
20260901211305 93 244 5.0 12.0 0.00 0.00 0.00 62 1014.7
20260901210806 93 252 3.0 10.0 0.00 0.00 0.00 62 1014.7
20260901210305 92 210 2.0 8.0 0.00 0.00 0.00 66 1014.9
20260901205306 92 257 2.0 3.0 0.00 0.00 0.00 66 1014.8
20260901204805 91 332 2.0 3.0 0.00 0.00 0.00 70 1014.9
20260901202805 90 292 1.0 5.0 0.00 0.00 0.00 67 1015.0
20260901201305 91 285 3.0 9.0 0.00 0.00 0.00 66 1015.2
20260901200805 92 294 2.0 9.0 0.00 0.00 0.00 64 1015.2
20260901195306 93 256 2.0 6.0 0.00 0.00 0.00 64 1015.3
20260901194806 93 289 1.0 6.0 0.00 0.00 0.00 63 1015.3
20260901193804 93 226 2.0 8.0 0.00 0.00 0.00 64 1015.5
20260901191805 92 289 3.0 9.0 0.00 0.00 0.00 65 1015.6
20260901191304 92 227 3.0 12.0 0.00 0.00 0.00 64 1015.6
20260901190804 92 266 5.0 12.0 0.00 0.00 0.00 66 1015.7
20260901190305 91 318 1.0 8.0 0.00 0.00 0.00 66 1015.8
20260901185804 93 339 2.0 8.0 0.00 0.00 0.00 65 1015.8
20260901185306 92 319 3.0 7.0 0.00 0.00 0.00 64 1015.8
20260901184804 93 221 2.0 7.0 0.00 0.00 0.00 63 1015.9
20260901182804 92 269 3.0 7.0 0.00 0.00 0.00 65 1015.8
20260901181305 91 319 2.0 8.0 0.00 0.00 0.00 67 1015.9
20260901180305 90 284 3.0 9.0 0.00 0.00 0.00 67 1016.0
20260901173304 88 284 3.0 9.0 0.00 0.00 0.00 73 1016.1
20260901172804 88 296 3.0 6.0 0.00 0.00 0.00 74 1016.1
20260901171806 87 258 2.0 8.0 0.00 0.00 0.00 74 1016.1
20260901170805 87 279 0.0 3.0 0.00 0.00 0.00 74 1016.1
20260901170305 87 261 2.0 3.0 0.00 0.00 0.00 74 1016.0
20260901165806 87 219 1.0 3.0 0.00 0.00 0.00 76 1016.1
20260901164304 86 291 1.0 3.0 0.00 0.00 0.00 76 1016.5
20260901163804 85 293 2.0 3.0 0.00 0.00 0.00 77 1016.6
20260901163304 85 322 1.0 3.0 0.00 0.00 0.00 79 1016.7
20260901162804 85 330 2.0 3.0 0.00 0.00 0.00 79 1016.8
20260901162306 86 330 2.0 3.0 0.00 0.00 0.00 75 1016.7
20260901161804 87 260 2.0 3.0 0.00 0.00 0.00 73 1016.7
20260901160807 88 262 1.0 7.0 0.00 0.00 0.00 72 1016.7
20260901160305 88 248 3.0 7.0 0.00 0.00 0.00 70 1016.7
20260901155804 89 312 2.0 5.0 0.00 0.00 0.00 71 1016.7
20260901155306 89 260 2.0 7.0 0.00 0.00 0.00 71 1016.8
20260901154806 89 305 2.0 8.0 0.00 0.00 0.00 71 1016.8
20260901153306 87 246 3.0 8.0 0.00 0.00 0.00 71 1017.0
20260901152806 87 261 3.0 8.0 0.00 0.00 0.00 72 1017.1
20260901152306 86 274 4.0 9.0 0.00 0.00 0.00 71 1017.2
20260901150304 87 281 5.0 10.0 0.00 0.00 0.00 72 1017.3
20260901145306 86 296 3.0 9.0 0.00 0.00 0.00 73 1017.2
20260901144304 85 295 2.0 9.0 0.00 0.00 0.00 77 1017.2
20260901142306 84 264 6.0 12.0 0.00 0.00 0.00 78 1017.4
20260901141304 82 291 5.0 10.0 0.00 0.00 0.00 82 1017.3
20260901140304 82 306 2.0 6.0 0.00 0.00 0.00 83 1017.3
20260901135305 81 285 1.0 3.0 0.00 0.00 0.00 86 1017.5
20260901134304 81 284 1.0 3.0 0.00 0.00 0.00 85 1017.3
20260901133804 81 275 0.0 6.0 0.00 0.00 0.00 85 1017.2
20260901132307 81 290 1.0 3.0 0.00 0.00 0.00 83 1017.1
20260901130804 80 263 2.0 6.0 0.00 0.00 0.00 85 1017.4
20260901130305 80 259 1.0 8.0 0.00 0.00 0.00 85 1017.5
20260901122805 77 274 1.0 5.0 0.00 0.00 0.00 91 1018.0
20260901122307 77 300 1.0 3.0 0.00 0.00 0.00 92 1017.9
20260901120804 76 275 0.0 3.0 0.00 0.00 0.00 95 1017.8
20260901115805 76 270 0.0 3.0 0.00 0.00 0.00 96 1017.6
20260901115306 75 270 0.0 3.0 0.00 0.00 0.00 97 1017.6
20260901112805 73 254 0.0 1.0 0.00 0.00 0.00 98 1017.5
20260901112306 73 254 0.0 2.0 0.00 0.00 0.00 98 1017.5
20260901111305 73 255 0.0 1.0 0.00 0.00 0.00 98 1017.4
20260901105805 72 162 0.0 2.0 0.00 0.00 0.00 98 1017.6
20260901104804 71 162 0.0 1.0 0.00 0.00 0.00 98 1017.5
20260901104304 71 162 0.0 1.0 0.00 0.00 0.00 98 1017.5
20260901102804 71 162 0.0 2.0 0.00 0.00 0.00 98 1017.4
20260901101304 70 161 0.0 1.0 0.00 0.00 0.00 98 1017.4
20260901100804 71 161 0.0 0.0 0.00 0.00 0.00 98 1017.5
20260901094304 71 161 0.0 0.0 0.00 0.00 0.00 98 1017.4
20260901093804 71 161 0.0 0.0 0.00 0.00 0.00 97 1017.4
20260901093304 71 161 0.0 0.0 0.00 0.00 0.00 97 1017.5
20260901091804 71 161 0.0 0.0 0.00 0.00 0.00 98 1017.6
20260901091304 71 161 0.0 0.0 0.00 0.00 0.00 98 1017.5
20260901090304 71 161 0.0 0.0 0.00 0.00 0.00 98 1017.8
20260901083804 71 161 0.0 0.0 0.00 0.00 0.00 98 1017.8
20260901083304 71 161 0.0 0.0 0.00 0.00 0.00 98 1017.7
20260901082306 71 161 0.0 0.0 0.00 0.00 0.00 97 1017.7
20260901081804 71 161 0.0 0.0 0.00 0.00 0.00 97 1017.6
20260901080805 71 161 0.0 0.0 0.00 0.00 0.00 97 1017.5
20260901080304 71 161 0.0 0.0 0.00 0.00 0.00 97 1017.5
20260901075804 71 161 0.0 0.0 0.00 0.00 0.00 97 1017.5
20260901074805 71 161 0.0 0.0 0.00 0.00 0.00 97 1017.5
20260901073804 71 161 0.0 0.0 0.00 0.00 0.00 97 1017.7
20260901072804 71 161 0.0 0.0 0.00 0.00 0.00 97 1017.7
20260901072309 71 161 0.0 0.0 0.00 0.00 0.00 97 1017.8
20260901071804 71 161 0.0 0.0 0.00 0.00 0.00 97 1017.8
20260901071304 71 161 0.0 0.0 0.00 0.00 0.00 97 1017.7
20260901070804 71 161 0.0 0.0 0.00 0.00 0.00 97 1017.8
20260901070304 71 161 0.0 0.0 0.00 0.00 0.00 97 1017.8
20260901065804 72 161 0.0 0.0 0.00 0.00 0.00 97 1018.0
20260901063304 72 161 0.0 0.0 0.00 0.00 0.00 97 1018.3
20260901062806 71 161 0.0 0.0 0.00 0.00 0.00 97 1018.3
20260901062309 71 161 0.0 0.0 0.00 0.00 0.00 97 1018.4
20260901061304 71 161 0.0 0.0 0.00 0.00 0.00 97 1018.4
20260901060805 71 161 0.0 0.0 0.00 0.00 0.00 97 1018.4
20260901055306 72 161 0.0 0.0 0.00 0.00 0.00 97 1018.3
20260901053805 72 161 0.0 0.0 0.00 0.00 0.00 97 1018.5
20260901052804 72 161 0.0 0.0 0.00 0.00 0.00 97 1018.6
20260901052307 72 161 0.0 0.0 0.00 0.00 0.00 97 1018.6
20260901051804 72 161 0.0 0.0 0.00 0.00 0.00 97 1018.6
20260901050804 72 161 0.0 0.0 0.00 0.00 0.00 96 1018.7
20260901050304 72 161 0.0 0.0 0.00 0.00 0.00 96 1018.7
20260901045804 72 161 0.0 0.0 0.00 0.00 0.00 96 1018.9
20260901044804 72 161 0.0 0.0 0.00 0.00 0.00 96 1018.8
20260901044304 72 159 0.0 0.0 0.00 0.00 0.00 96 1018.9
20260901043804 72 159 0.0 0.0 0.00 0.00 0.00 96 1018.9
20260901042807 72 159 0.0 1.0 0.00 0.00 0.00 96 1018.9
20260901040813 73 159 0.0 1.0 0.00 0.00 0.00 96 1019.1
20260901040305 72 150 0.0 0.0 0.00 0.00 0.00 96 1019.1
20260901035305 72 149 0.0 0.0 0.00 0.00 0.00 96 1019.0
20260901034304 72 149 0.0 0.0 0.00 0.00 0.00 96 1019.2
20260901032806 72 149 0.0 1.0 0.00 0.00 0.00 96 1019.3
20260901032306 72 149 0.0 1.0 0.00 0.00 0.00 96 1019.3
20260901031805 72 149 0.0 1.0 0.00 0.00 0.00 96 1019.3
20260901030805 72 149 0.0 1.0 0.00 0.00 0.00 96 1019.3
20260901024304 73 148 0.0 1.0 0.00 0.00 0.00 95 1019.4
20260901023806 73 148 0.0 1.0 0.00 0.00 0.00 95 1019.4
20260901023304 73 148 0.0 1.0 0.00 0.00 0.00 95 1019.3
20260901022804 73 148 0.0 1.0 0.00 0.00 0.00 95 1019.3
20260901021304 73 148 0.0 1.0 0.00 0.00 0.00 95 1019.3
20260901015804 73 148 0.0 1.0 0.00 0.00 0.00 94 1019.2
20260901013806 74 148 0.0 1.0 0.00 0.00 0.00 93 1019.0
20260901011304 74 148 0.0 0.0 0.00 0.00 0.00 93 1019.1
20260901010804 74 148 0.0 0.0 0.00 0.00 0.00 93 1019.1
20260901005804 75 148 0.0 0.0 0.00 0.00 0.00 91 1019.1
20260901005306 75 148 0.0 0.0 0.00 0.00 0.00 91 1019.0
20260901004805 75 148 0.0 0.0 0.00 0.00 0.00 91 1019.0
20260901003804 76 148 0.0 0.0 0.00 0.00 0.00 90 1018.9
20260901002804 77 148 0.0 3.0 0.00 0.00 0.00 87 1018.8
20260901002306 78 155 0.0 3.0 0.00 0.00 0.00 86 1018.8
20260831234804 78 88 0.0 2.0 0.00 0.00 0.00 85 1018.8
20260831234305 78 88 0.0 2.0 0.00 0.00 0.00 84 1018.8
20260831232306 79 165 2.0 5.0 0.00 0.00 0.00 83 1018.8
20260831231804 78 151 1.0 3.0 0.00 0.00 0.00 84 1018.8
20260831230306 79 140 0.0 2.0 0.00 0.00 0.00 85 1019.1
20260831225805 79 140 1.0 2.0 0.00 0.00 0.00 83 1019.1
20260831222804 80 109 0.0 2.0 0.00 0.00 0.00 82 1019.4
20260831222306 80 109 1.0 3.0 0.00 0.00 0.00 81 1019.5
20260831221805 80 110 1.0 3.0 0.00 0.00 0.00 82 1019.5
20260831220804 80 45 1.0 3.0 0.00 0.00 0.00 80 1019.6
20260831215804 80 45 1.0 3.0 0.00 0.00 0.00 82 1019.6